Year,Month,Day,Hour,Minute,Value (Times are PST for temperature in C)
2013,07,26,00,00,17.60
2013,07,26,00,01,17.50
2013,07,26,00,02,17.50
2013,07,26,00,03,17.40
2013,07,26,00,04,17.40
2013,07,26,00,05,17.30
2013,07,26,00,06,17.30
2013,07,26,00,07,17.20
2013,07,26,00,08,17.20
2013,07,26,00,09,17.20
2013,07,26,00,10,17.20
2013,07,26,00,11,17.20
2013,07,26,00,12,17.10
2013,07,26,00,13,17.10
2013,07,26,00,14,17.10
2013,07,26,00,15,17.10
2013,07,26,00,16,17.00
2013,07,26,00,17,17.00
2013,07,26,00,18,16.90
2013,07,26,00,19,16.90
2013,07,26,00,20,16.90
2013,07,26,00,21,16.90
2013,07,26,00,22,16.80
2013,07,26,00,23,16.80
2013,07,26,00,24,16.80
2013,07,26,00,25,16.80
2013,07,26,00,26,16.80
2013,07,26,00,27,16.80
2013,07,26,00,28,16.70
2013,07,26,00,29,16.70
2013,07,26,00,30,16.70
2013,07,26,00,31,16.60
2013,07,26,00,32,16.60
2013,07,26,00,33,16.60
2013,07,26,00,34,16.60
2013,07,26,00,35,16.50
2013,07,26,00,36,16.50
2013,07,26,00,37,16.40
2013,07,26,00,38,16.40
2013,07,26,00,39,16.40
2013,07,26,00,40,16.40
2013,07,26,00,41,16.40
2013,07,26,00,42,16.40
2013,07,26,00,43,16.40
2013,07,26,00,44,16.40
2013,07,26,00,45,16.30
2013,07,26,00,46,16.30
2013,07,26,00,47,16.30
2013,07,26,00,48,16.30
2013,07,26,00,49,16.30
2013,07,26,00,50,16.30
2013,07,26,00,51,16.30
2013,07,26,00,52,16.30
2013,07,26,00,53,16.30
2013,07,26,00,54,16.30
2013,07,26,00,55,16.30
2013,07,26,00,56,16.30
2013,07,26,00,57,16.30
2013,07,26,00,58,16.30
2013,07,26,00,59,16.30
2013,07,26,01,00,16.30
2013,07,26,01,01,16.30
2013,07,26,01,02,16.30
2013,07,26,01,03,16.30
2013,07,26,01,04,16.30
2013,07,26,01,05,16.30
2013,07,26,01,06,16.30
2013,07,26,01,07,16.30
2013,07,26,01,08,16.30
2013,07,26,01,09,16.20
2013,07,26,01,10,16.20
2013,07,26,01,11,16.20
2013,07,26,01,12,16.20
2013,07,26,01,13,16.20
2013,07,26,01,14,16.20
2013,07,26,01,15,16.10
2013,07,26,01,16,16.10
2013,07,26,01,17,16.10
2013,07,26,01,18,16.10
2013,07,26,01,19,16.00
2013,07,26,01,20,16.00
2013,07,26,01,21,16.00
2013,07,26,01,22,15.90
2013,07,26,01,23,15.90
2013,07,26,01,24,15.90
2013,07,26,01,25,15.90
2013,07,26,01,26,15.90
2013,07,26,01,27,15.80
2013,07,26,01,28,15.80
2013,07,26,01,29,15.80
2013,07,26,01,30,15.80
2013,07,26,01,31,15.80
2013,07,26,01,32,15.80
2013,07,26,01,33,15.80
2013,07,26,01,34,15.70
2013,07,26,01,35,15.70
2013,07,26,01,36,15.70
2013,07,26,01,37,15.70
2013,07,26,01,38,15.70
2013,07,26,01,39,15.60
2013,07,26,01,40,15.60
2013,07,26,01,41,15.60
2013,07,26,01,42,15.60
2013,07,26,01,43,15.50
2013,07,26,01,44,15.50
2013,07,26,01,45,15.50
2013,07,26,01,46,15.50
2013,07,26,01,47,15.50
2013,07,26,01,48,15.50
2013,07,26,01,49,15.50
2013,07,26,01,50,15.40
2013,07,26,01,51,15.40
2013,07,26,01,52,15.40
2013,07,26,01,53,15.40
2013,07,26,01,54,15.40
2013,07,26,01,55,15.30
2013,07,26,01,56,15.30
2013,07,26,01,57,15.30
2013,07,26,01,58,15.30
2013,07,26,01,59,15.30
2013,07,26,02,00,15.20
2013,07,26,02,01,15.20
2013,07,26,02,02,15.20
2013,07,26,02,03,15.20
2013,07,26,02,04,15.20
2013,07,26,02,05,15.20
2013,07,26,02,06,15.20
2013,07,26,02,07,15.20
2013,07,26,02,08,15.20
2013,07,26,02,09,15.20
2013,07,26,02,10,15.20
2013,07,26,02,11,15.20
2013,07,26,02,12,15.10
2013,07,26,02,13,15.10
2013,07,26,02,14,15.10
2013,07,26,02,15,15.10
2013,07,26,02,16,15.00
2013,07,26,02,17,15.00
2013,07,26,02,18,15.00
2013,07,26,02,19,15.00
2013,07,26,02,20,14.90
2013,07,26,02,21,14.90
2013,07,26,02,22,14.90
2013,07,26,02,23,14.90
2013,07,26,02,24,14.90
2013,07,26,02,25,14.90
2013,07,26,02,26,14.80
2013,07,26,02,27,14.80
2013,07,26,02,28,14.80
2013,07,26,02,29,14.80
2013,07,26,02,30,14.80
2013,07,26,02,31,14.80
2013,07,26,02,32,14.80
2013,07,26,02,33,14.80
2013,07,26,02,34,14.80
2013,07,26,02,35,14.80
2013,07,26,02,36,14.80
2013,07,26,02,37,14.80
2013,07,26,02,38,14.80
2013,07,26,02,39,14.80
2013,07,26,02,40,14.70
2013,07,26,02,41,14.70
2013,07,26,02,42,14.70
2013,07,26,02,43,14.70
2013,07,26,02,44,14.70
2013,07,26,02,45,14.70
2013,07,26,02,46,14.70
2013,07,26,02,47,14.70
2013,07,26,02,48,14.70
2013,07,26,02,49,14.70
2013,07,26,02,50,14.70
2013,07,26,02,51,14.70
2013,07,26,02,52,14.70
2013,07,26,02,53,14.60
2013,07,26,02,54,14.60
2013,07,26,02,55,14.60
2013,07,26,02,56,14.60
2013,07,26,02,57,14.60
2013,07,26,02,58,14.60
2013,07,26,02,59,14.60
2013,07,26,03,00,14.60
2013,07,26,03,01,14.60
2013,07,26,03,02,14.50
2013,07,26,03,03,14.50
2013,07,26,03,04,14.50
2013,07,26,03,05,14.50
2013,07,26,03,06,14.40
2013,07,26,03,07,14.40
2013,07,26,03,08,14.40
2013,07,26,03,09,14.40
2013,07,26,03,10,14.40
2013,07,26,03,11,14.40
2013,07,26,03,12,14.30
2013,07,26,03,13,14.30
2013,07,26,03,14,14.30
2013,07,26,03,15,14.30
2013,07,26,03,16,14.30
2013,07,26,03,17,14.30
2013,07,26,03,18,14.30
2013,07,26,03,19,14.30
2013,07,26,03,20,14.30
2013,07,26,03,21,14.20
2013,07,26,03,22,14.20
2013,07,26,03,23,14.20
2013,07,26,03,24,14.20
2013,07,26,03,25,14.20
2013,07,26,03,26,14.20
2013,07,26,03,27,14.20
2013,07,26,03,28,14.20
2013,07,26,03,29,14.20
2013,07,26,03,30,14.10
2013,07,26,03,31,14.10
2013,07,26,03,32,14.10
2013,07,26,03,33,14.00
2013,07,26,03,34,14.00
2013,07,26,03,35,14.00
2013,07,26,03,36,13.90
2013,07,26,03,37,13.90
2013,07,26,03,38,13.90
2013,07,26,03,39,13.90
2013,07,26,03,40,13.90
2013,07,26,03,41,13.90
2013,07,26,03,42,13.90
2013,07,26,03,43,13.80
2013,07,26,03,44,13.80
2013,07,26,03,45,13.80
2013,07,26,03,46,13.80
2013,07,26,03,47,13.80
2013,07,26,03,48,13.80
2013,07,26,03,49,13.80
2013,07,26,03,50,13.80
2013,07,26,03,51,13.80
2013,07,26,03,52,13.70
2013,07,26,03,53,13.70
2013,07,26,03,54,13.70
2013,07,26,03,55,13.70
2013,07,26,03,56,13.70
2013,07,26,03,57,13.70
2013,07,26,03,58,13.70
2013,07,26,03,59,13.70
2013,07,26,04,00,13.60
2013,07,26,04,01,13.60
2013,07,26,04,02,13.60
2013,07,26,04,03,13.60
2013,07,26,04,04,13.60
2013,07,26,04,05,13.60
2013,07,26,04,06,13.60
2013,07,26,04,07,13.60
2013,07,26,04,08,13.60
2013,07,26,04,09,13.50
2013,07,26,04,10,13.50
2013,07,26,04,11,13.50
2013,07,26,04,12,13.50
2013,07,26,04,13,13.50
2013,07,26,04,14,13.50
2013,07,26,04,15,13.40
2013,07,26,04,16,13.40
2013,07,26,04,17,13.40
2013,07,26,04,18,13.40
2013,07,26,04,19,13.40
2013,07,26,04,20,13.40
2013,07,26,04,21,13.30
2013,07,26,04,22,13.30
2013,07,26,04,23,13.30
2013,07,26,04,24,13.30
2013,07,26,04,25,13.30
2013,07,26,04,26,13.30
2013,07,26,04,27,13.20
2013,07,26,04,28,13.20
2013,07,26,04,29,13.20
2013,07,26,04,30,13.20
2013,07,26,04,31,13.10
2013,07,26,04,32,13.10
2013,07,26,04,33,13.10
2013,07,26,04,34,13.10
2013,07,26,04,35,13.00
2013,07,26,04,36,13.00
2013,07,26,04,37,13.00
2013,07,26,04,38,13.00
2013,07,26,04,39,13.00
2013,07,26,04,40,13.00
2013,07,26,04,41,13.00
2013,07,26,04,42,13.00
2013,07,26,04,43,13.00
2013,07,26,04,44,13.00
2013,07,26,04,45,13.00
2013,07,26,04,46,12.90
2013,07,26,04,47,12.90
2013,07,26,04,48,12.90
2013,07,26,04,49,12.90
2013,07,26,04,50,12.90
2013,07,26,04,51,12.90
2013,07,26,04,52,12.90
2013,07,26,04,53,12.90
2013,07,26,04,54,12.90
2013,07,26,04,55,13.00
2013,07,26,04,56,13.00
2013,07,26,04,57,13.00
2013,07,26,04,58,13.00
2013,07,26,04,59,13.00
2013,07,26,05,00,13.00
2013,07,26,05,01,13.00
2013,07,26,05,02,13.00
2013,07,26,05,03,13.00
2013,07,26,05,04,13.00
2013,07,26,05,05,13.00
2013,07,26,05,06,13.00
2013,07,26,05,07,13.00
2013,07,26,05,08,13.00
2013,07,26,05,09,13.00
2013,07,26,05,10,13.00
2013,07,26,05,11,13.00
2013,07,26,05,12,13.00
2013,07,26,05,13,13.00
2013,07,26,05,14,13.00
2013,07,26,05,15,13.00
2013,07,26,05,16,13.00
2013,07,26,05,17,13.10
2013,07,26,05,18,13.10
2013,07,26,05,19,13.10
2013,07,26,05,20,13.00
2013,07,26,05,21,13.00
2013,07,26,05,22,13.00
2013,07,26,05,23,13.00
2013,07,26,05,24,13.00
2013,07,26,05,25,13.00
2013,07,26,05,26,13.00
2013,07,26,05,27,13.00
2013,07,26,05,28,12.90
2013,07,26,05,29,12.90
2013,07,26,05,30,12.90
2013,07,26,05,31,12.90
2013,07,26,05,32,12.90
2013,07,26,05,33,12.90
2013,07,26,05,34,12.90
2013,07,26,05,35,12.90
2013,07,26,05,36,12.80
2013,07,26,05,37,12.80
2013,07,26,05,38,12.80
2013,07,26,05,39,12.80
2013,07,26,05,40,12.80
2013,07,26,05,41,12.70
2013,07,26,05,42,12.70
2013,07,26,05,43,12.70
2013,07,26,05,44,12.70
2013,07,26,05,45,12.70
2013,07,26,05,46,12.60
2013,07,26,05,47,12.60
2013,07,26,05,48,12.60
2013,07,26,05,49,12.60
2013,07,26,05,50,12.60
2013,07,26,05,51,12.60
2013,07,26,05,52,12.60
2013,07,26,05,53,12.60
2013,07,26,05,54,12.60
2013,07,26,05,55,12.50
2013,07,26,05,56,12.50
2013,07,26,05,57,12.60
2013,07,26,05,58,12.60
2013,07,26,05,59,12.60
2013,07,26,06,00,12.60
2013,07,26,06,01,12.60
2013,07,26,06,02,12.60
2013,07,26,06,03,12.60
2013,07,26,06,04,12.60
2013,07,26,06,05,12.60
2013,07,26,06,06,12.60
2013,07,26,06,07,12.60
2013,07,26,06,08,12.60
2013,07,26,06,09,12.60
2013,07,26,06,10,12.60
2013,07,26,06,11,12.60
2013,07,26,06,12,12.60
2013,07,26,06,13,12.60
2013,07,26,06,14,12.60
2013,07,26,06,15,12.60
2013,07,26,06,16,12.60
2013,07,26,06,17,12.60
2013,07,26,06,18,12.50
2013,07,26,06,19,12.50
2013,07,26,06,20,12.50
2013,07,26,06,21,12.60
2013,07,26,06,22,12.60
2013,07,26,06,23,12.60
2013,07,26,06,24,12.60
2013,07,26,06,25,12.60
2013,07,26,06,26,12.60
2013,07,26,06,27,12.60
2013,07,26,06,28,12.60
2013,07,26,06,29,12.60
2013,07,26,06,30,12.60
2013,07,26,06,31,12.60
2013,07,26,06,32,12.60
2013,07,26,06,33,12.70
2013,07,26,06,34,12.70
2013,07,26,06,35,12.70
2013,07,26,06,36,12.70
2013,07,26,06,37,12.70
2013,07,26,06,38,12.80
2013,07,26,06,39,12.80
2013,07,26,06,40,12.80
2013,07,26,06,41,12.90
2013,07,26,06,42,12.90
2013,07,26,06,43,12.90
2013,07,26,06,44,13.00
2013,07,26,06,45,13.00
2013,07,26,06,46,13.00
2013,07,26,06,47,13.00
2013,07,26,06,48,13.00
2013,07,26,06,49,13.00
2013,07,26,06,50,13.00
2013,07,26,06,51,13.10
2013,07,26,06,52,13.20
2013,07,26,06,53,13.20
2013,07,26,06,54,13.20
2013,07,26,06,55,13.20
2013,07,26,06,56,13.20
2013,07,26,06,57,13.20
2013,07,26,06,58,13.20
2013,07,26,06,59,13.20
2013,07,26,07,00,13.20
2013,07,26,07,01,13.20
2013,07,26,07,02,13.30
2013,07,26,07,03,13.30
2013,07,26,07,04,13.30
2013,07,26,07,05,13.30
2013,07,26,07,06,13.30
2013,07,26,07,07,13.30
2013,07,26,07,08,13.30
2013,07,26,07,09,13.30
2013,07,26,07,10,13.30
2013,07,26,07,11,13.40
2013,07,26,07,12,13.40
2013,07,26,07,13,13.40
2013,07,26,07,14,13.40
2013,07,26,07,15,13.40
2013,07,26,07,16,13.50
2013,07,26,07,17,13.50
2013,07,26,07,18,13.60
2013,07,26,07,19,13.60
2013,07,26,07,20,13.60
2013,07,26,07,21,13.60
2013,07,26,07,22,13.70
2013,07,26,07,23,13.70
2013,07,26,07,24,13.80
2013,07,26,07,25,13.80
2013,07,26,07,26,13.90
2013,07,26,07,27,14.00
2013,07,26,07,28,14.00
2013,07,26,07,29,14.10
2013,07,26,07,30,14.20
2013,07,26,07,31,14.30
2013,07,26,07,32,14.40
2013,07,26,07,33,14.40
2013,07,26,07,34,14.50
2013,07,26,07,35,14.60
2013,07,26,07,36,14.70
2013,07,26,07,37,14.80
2013,07,26,07,38,14.90
2013,07,26,07,39,15.00
2013,07,26,07,40,15.10
2013,07,26,07,41,15.10
2013,07,26,07,42,15.20
2013,07,26,07,43,15.20
2013,07,26,07,44,15.20
2013,07,26,07,45,15.30
2013,07,26,07,46,15.30
2013,07,26,07,47,15.40
2013,07,26,07,48,15.40
2013,07,26,07,49,15.50
2013,07,26,07,50,15.60
2013,07,26,07,51,15.70
2013,07,26,07,52,15.80
2013,07,26,07,53,15.90
2013,07,26,07,54,16.00
2013,07,26,07,55,16.10
2013,07,26,07,56,16.20
2013,07,26,07,57,16.30
2013,07,26,07,58,16.40
2013,07,26,07,59,16.40
2013,07,26,08,00,16.50
2013,07,26,08,01,16.50
2013,07,26,08,02,16.60
2013,07,26,08,03,16.60
2013,07,26,08,04,16.60
2013,07,26,08,05,16.70
2013,07,26,08,06,16.70
2013,07,26,08,07,16.70
2013,07,26,08,08,16.80
2013,07,26,08,09,16.80
2013,07,26,08,10,16.80
2013,07,26,08,11,16.90
2013,07,26,08,12,17.00
2013,07,26,08,13,17.00
2013,07,26,08,14,17.10
2013,07,26,08,15,17.20
2013,07,26,08,16,17.30
2013,07,26,08,17,17.30
2013,07,26,08,18,17.50
2013,07,26,08,19,17.60
2013,07,26,08,20,17.70
2013,07,26,08,21,17.80
2013,07,26,08,22,17.90
2013,07,26,08,23,17.90
2013,07,26,08,24,17.90
2013,07,26,08,25,17.90
2013,07,26,08,26,17.90
2013,07,26,08,27,17.90
2013,07,26,08,28,17.90
2013,07,26,08,29,17.90
2013,07,26,08,30,17.80
2013,07,26,08,31,17.80
2013,07,26,08,32,17.80
2013,07,26,08,33,17.80
2013,07,26,08,34,17.80
2013,07,26,08,35,17.90
2013,07,26,08,36,17.90
2013,07,26,08,37,17.90
2013,07,26,08,38,17.90
2013,07,26,08,39,18.00
2013,07,26,08,40,18.10
2013,07,26,08,41,18.20
2013,07,26,08,42,18.30
2013,07,26,08,43,18.40
2013,07,26,08,44,18.40
2013,07,26,08,45,18.50
2013,07,26,08,46,18.50
2013,07,26,08,47,18.60
2013,07,26,08,48,18.70
2013,07,26,08,49,18.80
2013,07,26,08,50,18.80
2013,07,26,08,51,18.80
2013,07,26,08,52,18.90
2013,07,26,08,53,19.00
2013,07,26,08,54,19.00
2013,07,26,08,55,19.10
2013,07,26,08,56,19.10
2013,07,26,08,57,19.20
2013,07,26,08,58,19.20
2013,07,26,08,59,19.10
2013,07,26,09,00,19.10
2013,07,26,09,01,19.10
2013,07,26,09,02,19.10
2013,07,26,09,03,19.10
2013,07,26,09,04,19.10
2013,07,26,09,05,19.10
2013,07,26,09,06,19.10
2013,07,26,09,07,19.10
2013,07,26,09,08,19.20
2013,07,26,09,09,19.20
2013,07,26,09,10,19.20
2013,07,26,09,11,19.20
2013,07,26,09,12,19.20
2013,07,26,09,13,19.20
2013,07,26,09,14,19.20
2013,07,26,09,15,19.20
2013,07,26,09,16,19.20
2013,07,26,09,17,19.20
2013,07,26,09,18,19.20
2013,07,26,09,19,19.20
2013,07,26,09,20,19.30
2013,07,26,09,21,19.30
2013,07,26,09,22,19.30
2013,07,26,09,23,19.30
2013,07,26,09,24,19.30
2013,07,26,09,25,19.40
2013,07,26,09,26,19.40
2013,07,26,09,27,19.40
2013,07,26,09,28,19.40
2013,07,26,09,29,19.40
2013,07,26,09,30,19.50
2013,07,26,09,31,19.50
2013,07,26,09,32,19.60
2013,07,26,09,33,19.60
2013,07,26,09,34,19.60
2013,07,26,09,35,19.60
2013,07,26,09,36,19.60
2013,07,26,09,37,19.60
2013,07,26,09,38,19.70
2013,07,26,09,39,19.70
2013,07,26,09,40,19.80
2013,07,26,09,41,19.80
2013,07,26,09,42,19.80
2013,07,26,09,43,19.90
2013,07,26,09,44,19.90
2013,07,26,09,45,19.90
2013,07,26,09,46,19.90
2013,07,26,09,47,19.90
2013,07,26,09,48,19.90
2013,07,26,09,49,20.00
2013,07,26,09,50,20.10
2013,07,26,09,51,20.10
2013,07,26,09,52,20.20
2013,07,26,09,53,20.10
2013,07,26,09,54,20.10
2013,07,26,09,55,20.10
2013,07,26,09,56,20.20
2013,07,26,09,57,20.20
2013,07,26,09,58,20.20
2013,07,26,09,59,20.20
2013,07,26,10,00,20.20
2013,07,26,10,01,20.20
2013,07,26,10,02,20.30
2013,07,26,10,03,20.30
2013,07,26,10,04,20.30
2013,07,26,10,05,20.30
2013,07,26,10,06,20.30
2013,07,26,10,07,20.30
2013,07,26,10,08,20.40
2013,07,26,10,09,20.40
2013,07,26,10,10,20.40
2013,07,26,10,11,20.50
2013,07,26,10,12,20.50
2013,07,26,10,13,20.60
2013,07,26,10,14,20.70
2013,07,26,10,15,20.70
2013,07,26,10,16,20.70
2013,07,26,10,17,20.70
2013,07,26,10,18,20.80
2013,07,26,10,19,20.80
2013,07,26,10,20,20.90
2013,07,26,10,21,21.00
2013,07,26,10,22,21.10
2013,07,26,10,23,21.10
2013,07,26,10,24,21.20
2013,07,26,10,25,21.20
2013,07,26,10,26,21.20
2013,07,26,10,27,21.20
2013,07,26,10,28,21.20
2013,07,26,10,29,21.20
2013,07,26,10,30,21.30
2013,07,26,10,31,21.30
2013,07,26,10,32,21.40
2013,07,26,10,33,21.50
2013,07,26,10,34,21.50
2013,07,26,10,35,21.60
2013,07,26,10,36,21.60
2013,07,26,10,37,21.70
2013,07,26,10,38,21.70
2013,07,26,10,39,21.70
2013,07,26,10,40,21.80
2013,07,26,10,41,21.80
2013,07,26,10,42,21.80
2013,07,26,10,43,21.90
2013,07,26,10,44,21.90
2013,07,26,10,45,21.90
2013,07,26,10,46,22.00
2013,07,26,10,47,22.10
2013,07,26,10,48,22.20
2013,07,26,10,49,22.30
2013,07,26,10,50,22.30
2013,07,26,10,51,22.30
2013,07,26,10,52,22.40
2013,07,26,10,53,22.50
2013,07,26,10,54,22.60
2013,07,26,10,55,22.60
2013,07,26,10,56,22.60
2013,07,26,10,57,22.50
2013,07,26,10,58,22.50
2013,07,26,10,59,22.50
2013,07,26,11,00,22.50
2013,07,26,11,01,22.60
2013,07,26,11,02,22.60
2013,07,26,11,03,22.70
2013,07,26,11,04,22.70
2013,07,26,11,05,22.70
2013,07,26,11,06,22.80
2013,07,26,11,07,22.80
2013,07,26,11,08,22.80
2013,07,26,11,09,22.80
2013,07,26,11,10,22.80
2013,07,26,11,11,22.80
2013,07,26,11,12,22.80
2013,07,26,11,13,22.80
2013,07,26,11,14,22.80
2013,07,26,11,15,22.80
2013,07,26,11,16,22.80
2013,07,26,11,17,22.80
2013,07,26,11,18,22.90
2013,07,26,11,19,22.90
2013,07,26,11,20,23.00
2013,07,26,11,21,23.10
2013,07,26,11,22,23.20
2013,07,26,11,23,23.30
2013,07,26,11,24,23.40
2013,07,26,11,25,23.50
2013,07,26,11,26,23.60
2013,07,26,11,27,23.50
2013,07,26,11,28,23.50
2013,07,26,11,29,23.50
2013,07,26,11,30,23.60
2013,07,26,11,31,23.60
2013,07,26,11,32,23.60
2013,07,26,11,33,23.60
2013,07,26,11,34,23.60
2013,07,26,11,35,23.70
2013,07,26,11,36,23.70
2013,07,26,11,37,23.70
2013,07,26,11,38,23.70
2013,07,26,11,39,23.70
2013,07,26,11,40,23.70
2013,07,26,11,41,23.70
2013,07,26,11,42,23.80
2013,07,26,11,43,23.80
2013,07,26,11,44,23.90
2013,07,26,11,45,23.90
2013,07,26,11,46,24.00
2013,07,26,11,47,24.00
2013,07,26,11,48,24.10
2013,07,26,11,49,24.10
2013,07,26,11,50,24.10
2013,07,26,11,51,24.10
2013,07,26,11,52,24.10
2013,07,26,11,53,24.10
2013,07,26,11,54,24.10
2013,07,26,11,55,24.00
2013,07,26,11,56,24.00
2013,07,26,11,57,24.00
2013,07,26,11,58,24.00
2013,07,26,11,59,24.00
2013,07,26,12,00,24.10
2013,07,26,12,01,24.10
2013,07,26,12,02,24.10
2013,07,26,12,03,24.10
2013,07,26,12,04,24.20
2013,07,26,12,05,24.20
2013,07,26,12,06,24.30
2013,07,26,12,07,24.30
2013,07,26,12,08,24.30
2013,07,26,12,09,24.30
2013,07,26,12,10,24.30
2013,07,26,12,11,24.40
2013,07,26,12,12,24.40
2013,07,26,12,13,24.50
2013,07,26,12,14,24.60
2013,07,26,12,15,24.60
2013,07,26,12,16,24.50
2013,07,26,12,17,24.50
2013,07,26,12,18,24.50
2013,07,26,12,19,24.60
2013,07,26,12,20,24.70
2013,07,26,12,21,24.80
2013,07,26,12,22,24.80
2013,07,26,12,23,24.70
2013,07,26,12,24,24.70
2013,07,26,12,25,24.70
2013,07,26,12,26,24.70
2013,07,26,12,27,24.80
2013,07,26,12,28,24.80
2013,07,26,12,29,24.90
2013,07,26,12,30,24.90
2013,07,26,12,31,24.90
2013,07,26,12,32,24.90
2013,07,26,12,33,24.90
2013,07,26,12,34,25.00
2013,07,26,12,35,25.00
2013,07,26,12,36,25.00
2013,07,26,12,37,25.00
2013,07,26,12,38,25.00
2013,07,26,12,39,24.90
2013,07,26,12,40,24.90
2013,07,26,12,41,24.90
2013,07,26,12,42,24.90
2013,07,26,12,43,24.80
2013,07,26,12,44,24.80
2013,07,26,12,45,24.90
2013,07,26,12,46,24.90
2013,07,26,12,47,24.90
2013,07,26,12,48,24.90
2013,07,26,12,49,24.90
2013,07,26,12,50,25.00
2013,07,26,12,51,25.00
2013,07,26,12,52,25.00
2013,07,26,12,53,25.00
2013,07,26,12,54,25.00
2013,07,26,12,55,25.10
2013,07,26,12,56,25.10
2013,07,26,12,57,25.10
2013,07,26,12,58,25.10
2013,07,26,12,59,25.10
2013,07,26,13,00,25.10
2013,07,26,13,01,25.10
2013,07,26,13,02,25.20
2013,07,26,13,03,25.20
2013,07,26,13,04,25.20
2013,07,26,13,05,25.20
2013,07,26,13,06,25.30
2013,07,26,13,07,25.40
2013,07,26,13,08,25.40
2013,07,26,13,09,25.40
2013,07,26,13,10,25.50
2013,07,26,13,11,25.50
2013,07,26,13,12,25.60
2013,07,26,13,13,25.60
2013,07,26,13,14,25.70
2013,07,26,13,15,25.60
2013,07,26,13,16,25.50
2013,07,26,13,17,25.40
2013,07,26,13,18,25.30
2013,07,26,13,19,25.30
2013,07,26,13,20,25.30
2013,07,26,13,21,25.30
2013,07,26,13,22,25.30
2013,07,26,13,23,25.30
2013,07,26,13,24,25.30
2013,07,26,13,25,25.30
2013,07,26,13,26,25.30
2013,07,26,13,27,25.30
2013,07,26,13,28,25.30
2013,07,26,13,29,25.40
2013,07,26,13,30,25.40
2013,07,26,13,31,25.30
2013,07,26,13,32,25.30
2013,07,26,13,33,25.20
2013,07,26,13,34,25.20
2013,07,26,13,35,25.20
2013,07,26,13,36,25.30
2013,07,26,13,37,25.30
2013,07,26,13,38,25.40
2013,07,26,13,39,25.40
2013,07,26,13,40,25.40
2013,07,26,13,41,25.50
2013,07,26,13,42,25.60
2013,07,26,13,43,25.60
2013,07,26,13,44,25.60
2013,07,26,13,45,25.50
2013,07,26,13,46,25.50
2013,07,26,13,47,25.50
2013,07,26,13,48,25.50
2013,07,26,13,49,25.50
2013,07,26,13,50,25.60
2013,07,26,13,51,25.70
2013,07,26,13,52,25.70
2013,07,26,13,53,25.70
2013,07,26,13,54,25.60
2013,07,26,13,55,25.60
2013,07,26,13,56,25.60
2013,07,26,13,57,25.60
2013,07,26,13,58,25.60
2013,07,26,13,59,25.70
2013,07,26,14,00,25.70
2013,07,26,14,01,25.70
2013,07,26,14,02,25.70
2013,07,26,14,03,25.80
2013,07,26,14,04,25.80
2013,07,26,14,05,25.90
2013,07,26,14,06,25.90
2013,07,26,14,07,25.90
2013,07,26,14,08,25.90
2013,07,26,14,09,25.90
2013,07,26,14,10,25.90
2013,07,26,14,11,25.90
2013,07,26,14,12,26.00
2013,07,26,14,13,26.00
2013,07,26,14,14,25.90
2013,07,26,14,15,25.90
2013,07,26,14,16,25.90
2013,07,26,14,17,25.90
2013,07,26,14,18,25.90
2013,07,26,14,19,26.10
2013,07,26,14,20,26.20
2013,07,26,14,21,26.20
2013,07,26,14,22,26.30
2013,07,26,14,23,26.40
2013,07,26,14,24,26.40
2013,07,26,14,25,26.40
2013,07,26,14,26,26.40
2013,07,26,14,27,26.40
2013,07,26,14,28,26.50
2013,07,26,14,29,26.50
2013,07,26,14,30,26.50
2013,07,26,14,31,26.40
2013,07,26,14,32,26.30
2013,07,26,14,33,26.30
2013,07,26,14,34,26.20
2013,07,26,14,35,26.10
2013,07,26,14,36,26.10
2013,07,26,14,37,26.00
2013,07,26,14,38,26.00
2013,07,26,14,39,25.90
2013,07,26,14,40,25.90
2013,07,26,14,41,25.90
2013,07,26,14,42,25.90
2013,07,26,14,43,26.00
2013,07,26,14,44,26.00
2013,07,26,14,45,26.10
2013,07,26,14,46,26.20
2013,07,26,14,47,26.20
2013,07,26,14,48,26.30
2013,07,26,14,49,26.30
2013,07,26,14,50,26.20
2013,07,26,14,51,26.20
2013,07,26,14,52,26.20
2013,07,26,14,53,26.20
2013,07,26,14,54,26.20
2013,07,26,14,55,26.20
2013,07,26,14,56,26.20
2013,07,26,14,57,26.20
2013,07,26,14,58,26.20
2013,07,26,14,59,26.30
2013,07,26,15,00,26.30
2013,07,26,15,01,26.30
2013,07,26,15,02,26.30
2013,07,26,15,03,26.30
2013,07,26,15,04,26.30
2013,07,26,15,05,26.30
2013,07,26,15,06,26.30
2013,07,26,15,07,26.30
2013,07,26,15,08,26.30
2013,07,26,15,09,26.30
2013,07,26,15,10,26.30
2013,07,26,15,11,26.30
2013,07,26,15,12,26.30
2013,07,26,15,13,26.30
2013,07,26,15,14,26.40
2013,07,26,15,15,26.40
2013,07,26,15,16,26.40
2013,07,26,15,17,26.40
2013,07,26,15,18,26.40
2013,07,26,15,19,26.40
2013,07,26,15,20,26.40
2013,07,26,15,21,26.30
2013,07,26,15,22,26.40
2013,07,26,15,23,26.40
2013,07,26,15,24,26.50
2013,07,26,15,25,26.50
2013,07,26,15,26,26.50
2013,07,26,15,27,26.50
2013,07,26,15,28,26.60
2013,07,26,15,29,26.60
2013,07,26,15,30,26.60
2013,07,26,15,31,26.70
2013,07,26,15,32,26.70
2013,07,26,15,33,26.70
2013,07,26,15,34,26.60
2013,07,26,15,35,26.50
2013,07,26,15,36,26.40
2013,07,26,15,37,26.40
2013,07,26,15,38,26.30
2013,07,26,15,39,26.20
2013,07,26,15,40,26.20
2013,07,26,15,41,26.20
2013,07,26,15,42,26.20
2013,07,26,15,43,26.30
2013,07,26,15,44,26.40
2013,07,26,15,45,26.40
2013,07,26,15,46,26.40
2013,07,26,15,47,26.40
2013,07,26,15,48,26.40
2013,07,26,15,49,26.40
2013,07,26,15,50,26.40
2013,07,26,15,51,26.30
2013,07,26,15,52,26.30
2013,07,26,15,53,26.20
2013,07,26,15,54,26.20
2013,07,26,15,55,26.30
2013,07,26,15,56,26.30
2013,07,26,15,57,26.30
2013,07,26,15,58,26.20
2013,07,26,15,59,26.20
2013,07,26,16,00,26.10
2013,07,26,16,01,26.10
2013,07,26,16,02,26.10
2013,07,26,16,03,26.10
2013,07,26,16,04,26.10
2013,07,26,16,05,26.10
2013,07,26,16,06,26.10
2013,07,26,16,07,26.10
2013,07,26,16,08,26.10
2013,07,26,16,09,26.10
2013,07,26,16,10,26.10
2013,07,26,16,11,26.10
2013,07,26,16,12,26.20
2013,07,26,16,13,26.30
2013,07,26,16,14,26.30
2013,07,26,16,15,26.30
2013,07,26,16,16,26.20
2013,07,26,16,17,26.20
2013,07,26,16,18,26.20
2013,07,26,16,19,26.20
2013,07,26,16,20,26.20
2013,07,26,16,21,26.20
2013,07,26,16,22,26.30
2013,07,26,16,23,26.30
2013,07,26,16,24,26.30
2013,07,26,16,25,26.30
2013,07,26,16,26,26.30
2013,07,26,16,27,26.30
2013,07,26,16,28,26.30
2013,07,26,16,29,26.30
2013,07,26,16,30,26.30
2013,07,26,16,31,26.30
2013,07,26,16,32,26.40
2013,07,26,16,33,26.40
2013,07,26,16,34,26.50
2013,07,26,16,35,26.40
2013,07,26,16,36,26.40
2013,07,26,16,37,26.40
2013,07,26,16,38,26.50
2013,07,26,16,39,26.60
2013,07,26,16,40,26.60
2013,07,26,16,41,26.60
2013,07,26,16,42,26.70
2013,07,26,16,43,26.70
2013,07,26,16,44,26.80
2013,07,26,16,45,26.80
2013,07,26,16,46,26.80
2013,07,26,16,47,26.90
2013,07,26,16,48,26.90
2013,07,26,16,49,26.80
2013,07,26,16,50,26.80
2013,07,26,16,51,26.80
2013,07,26,16,52,26.80
2013,07,26,16,53,26.80
2013,07,26,16,54,26.80
2013,07,26,16,55,26.80
2013,07,26,16,56,26.90
2013,07,26,16,57,26.90
2013,07,26,16,58,26.90
2013,07,26,16,59,26.90
2013,07,26,17,00,26.90
2013,07,26,17,01,26.90
2013,07,26,17,02,26.80
2013,07,26,17,03,26.70
2013,07,26,17,04,26.60
2013,07,26,17,05,26.60
2013,07,26,17,06,26.70
2013,07,26,17,07,26.60
2013,07,26,17,08,26.60
2013,07,26,17,09,26.50
2013,07,26,17,10,26.50
2013,07,26,17,11,26.40
2013,07,26,17,12,26.50
2013,07,26,17,13,26.50
2013,07,26,17,14,26.70
2013,07,26,17,15,26.70
2013,07,26,17,16,26.80
2013,07,26,17,17,26.80
2013,07,26,17,18,26.90
2013,07,26,17,19,26.90